TimeCST,TemperatureF,Dew PointF,Humidity,Sea Level PressureIn,VisibilityMPH,Wind Direction,Wind SpeedMPH,Gust SpeedMPH,PrecipitationIn,Events,Conditions,WindDirDegrees,DateUTC
12:56 AM,24.1,14.0,65,30.06,-9999.0,South,6.9,-,N/A,,Unknown,170,2011-11-28 06:56:00
1:56 AM,24.1,15.1,69,30.05,-9999.0,SSE,8.1,-,N/A,,Unknown,150,2011-11-28 07:56:00
2:56 AM,26.1,14.0,60,30.03,-9999.0,SSE,8.1,-,N/A,,Unknown,160,2011-11-28 08:56:00
3:56 AM,37.0,10.0,33,29.99,-9999.0,South,15.0,24.2,N/A,,Unknown,170,2011-11-28 09:56:00
4:56 AM,33.1,10.9,40,29.98,-9999.0,SSE,11.5,-,N/A,,Unknown,160,2011-11-28 10:56:00
5:56 AM,41.0,12.9,32,29.94,-9999.0,SSW,16.1,-,N/A,,Unknown,210,2011-11-28 11:56:00
6:56 AM,39.0,14.0,36,29.95,-9999.0,SW,17.3,27.6,N/A,,Unknown,230,2011-11-28 12:56:00
7:56 AM,36.0,14.0,41,29.96,-9999.0,South,10.4,16.1,N/A,,Unknown,190,2011-11-28 13:56:00
8:56 AM,41.0,17.1,38,29.98,-9999.0,West,6.9,-,N/A,,Unknown,270,2011-11-28 14:56:00
9:56 AM,44.1,19.0,37,29.99,-9999.0,WNW,12.7,17.3,N/A,,Unknown,300,2011-11-28 15:56:00
10:56 AM,46.9,21.0,36,30.01,-9999.0,WNW,13.8,-,N/A,,Unknown,300,2011-11-28 16:56:00
11:56 AM,51.1,24.1,35,30.01,-9999.0,NW,18.4,-,N/A,,Unknown,320,2011-11-28 17:56:00
12:56 PM,53.1,28.0,38,30.03,-9999.0,NNW,25.3,34.5,N/A,,Unknown,340,2011-11-28 18:56:00
1:56 PM,53.1,30.0,41,30.07,-9999.0,North,31.1,35.7,N/A,,Unknown,350,2011-11-28 19:56:00
2:56 PM,50.0,32.0,50,30.12,-9999.0,North,20.7,-,N/A,,Unknown,360,2011-11-28 20:56:00
3:56 PM,48.9,32.0,52,30.16,-9999.0,North,21.9,32.2,N/A,,Unknown,360,2011-11-28 21:56:00
4:56 PM,44.1,30.9,60,30.21,-9999.0,North,16.1,-,N/A,,Unknown,350,2011-11-28 22:56:00
5:56 PM,37.0,28.0,70,30.26,-9999.0,North,9.2,-,N/A,,Unknown,350,2011-11-28 23:56:00
6:56 PM,35.1,27.0,72,30.28,-9999.0,NNW,11.5,-,N/A,,Unknown,340,2011-11-29 00:56:00
7:56 PM,35.1,27.0,72,30.31,-9999.0,NNW,11.5,-,N/A,,Unknown,340,2011-11-29 01:56:00
8:56 PM,33.1,25.0,72,30.33,-9999.0,NNW,10.4,-,N/A,,Unknown,340,2011-11-29 02:56:00
9:56 PM,30.9,21.9,69,30.35,-9999.0,NNW,12.7,-,N/A,,Unknown,340,2011-11-29 03:56:00
10:56 PM,28.9,21.0,72,30.37,-9999.0,NNW,12.7,-,N/A,,Unknown,340,2011-11-29 04:56:00
11:56 PM,28.0,21.0,75,30.38,-9999.0,NNW,11.5,-,N/A,,Unknown,340,2011-11-29 05:56:00